Orange, MA

9:35 PM EDT on May 28, 2017 (GMT -0400)
Orange Municipal

Weather History for KORE - August, 2014

Change the Weather History Date:

Sunday, August 31, 2014

  Actual Average Record
Temperature  
Mean Temperature 74 °F -  
Max Temperature 81 °F 75 °F 96 °F (2010)
Min Temperature 68 °F 51 °F 43 °F (2003)
Cooling Degree Days 10    
Growing Degree Days 24 (Base 50)    
Moisture  
Dew Point 68 °F    
Average Humidity 83    
Maximum Humidity 100    
Minimum Humidity 67    
Precipitation  
Precipitation 0.01 in - - ()
Sea Level Pressure  
Sea Level Pressure 30.03 in    
Wind  
Wind Speed 7 mph (South)    
Max Wind Speed 13 mph    
Max Gust Speed -    
Visibility 9 miles    
Events Rain    
Averages and records for this station are not official NWS values.
T = Trace of Precipitation, MM = Missing Value Source: NWS Daily Summary

Daily Weather History Graph

Daily Weather History Graph

Search for Another Location

Airport or City:

Trip Planner

Search our weather history database for the weather conditions in past years. The results will help you decide how hot, cold, wet, or windy it might be!

Date:

Astronomy

Aug. 31, 2014 Rise Set
Actual Time 6:12 AM EDT 7:25 PM EDT
Civil Twilight 5:43 AM EDT 7:54 PM EDT
Nautical Twilight 5:09 AM EDT 8:28 PM EDT
Astronomical Twilight 4:32 AM EDT 9:05 PM EDT
Moon 12:04 PM EDT (8/31) 10:29 PM EDT (8/31)
Length of Visible Light 14h 10m
Length of Day
13h 12m
Waxing Crescent, 32% of the Moon is Illuminated
Aug 31
Waxing Crescent
Sep 2
First Quarter
Sep 8
Full
Sep 15
Last Quarter
Sep 24
New

Hourly Weather History & Observations

Time (EDT) Temp. Heat Index Dew Point Humidity Pressure Visibility Wind Dir Wind Speed Gust Speed Precip Events Conditions
12:52 AM 68.0 °F - 62.1 °F 81% 30.13 in 10.0 mi SSW 5.8 mph - N/A   Overcast
1:52 AM 68.0 °F - 63.0 °F 84% 30.11 in 10.0 mi SSW 6.9 mph - N/A   Overcast
2:52 AM 69.1 °F - 64.0 °F 84% 30.10 in 10.0 mi South 6.9 mph - N/A   Overcast
3:52 AM 69.1 °F - 64.0 °F 84% 30.09 in 10.0 mi South 5.8 mph - N/A   Overcast
4:52 AM 70.0 °F - 64.9 °F 84% 30.09 in 10.0 mi South 6.9 mph - N/A   Overcast
5:52 AM 70.0 °F - 64.9 °F 84% 30.08 in 10.0 mi South 6.9 mph - N/A   Overcast
6:32 AM 69.1 °F - 64.0 °F 84% 30.08 in 10.0 mi South 5.8 mph - N/A   Scattered Clouds
6:52 AM 69.1 °F - 64.0 °F 84% 30.08 in 10.0 mi South 6.9 mph - N/A   Clear
7:52 AM 70.0 °F - 64.9 °F 84% 30.08 in 10.0 mi SSW 6.9 mph - N/A   Clear
8:30 AM 72.0 °F - 66.0 °F 81% 30.08 in 10.0 mi South 9.2 mph - N/A   Mostly Cloudy
8:52 AM 72.0 °F - 64.9 °F 78% 30.07 in 10.0 mi South 11.5 mph - N/A   Mostly Cloudy
9:52 AM 73.0 °F - 66.0 °F 79% 30.07 in 10.0 mi SSW 8.1 mph - N/A   Overcast
10:52 AM 75.9 °F - 66.9 °F 74% 30.05 in 10.0 mi South 11.5 mph - N/A   Mostly Cloudy
11:38 AM 78.1 °F - 66.9 °F 68% 30.05 in 10.0 mi SSW 11.5 mph - N/A   Scattered Clouds
11:52 AM 78.1 °F - 68.0 °F 71% 30.04 in 10.0 mi South 12.7 mph - N/A   Scattered Clouds
12:52 PM 79.0 °F - 68.0 °F 69% 30.02 in 10.0 mi SW 11.5 mph - 0.00 in   Mostly Cloudy
1:41 PM 79.0 °F - 69.1 °F 72% 30.01 in 10.0 mi SSW 8.1 mph - N/A   Mostly Cloudy
1:52 PM 79.0 °F - 69.1 °F 72% 30.01 in 10.0 mi SSW 9.2 mph - N/A   Scattered Clouds
2:52 PM 81.0 °F 84.1 °F 69.1 °F 67% 29.99 in 10.0 mi SSW 9.2 mph - N/A   Clear
3:52 PM 80.1 °F 83.2 °F 70.0 °F 71% 29.97 in 10.0 mi South 10.4 mph - N/A   Scattered Clouds
4:52 PM 78.1 °F - 71.1 °F 79% 29.96 in 10.0 mi South 6.9 mph - N/A   Overcast
5:52 PM 77.0 °F - 72.0 °F 84% 29.97 in 10.0 mi SSE 5.8 mph - 0.00 in   Overcast
6:52 PM 75.0 °F - 72.0 °F 90% 29.96 in 7.0 mi South 5.8 mph - 0.00 in Rain Light Rain
7:52 PM 73.9 °F - 72.0 °F 93% 29.97 in 8.0 mi South 8.1 mph - 0.00 in Rain Light Rain
8:52 PM 73.0 °F - 71.1 °F 93% 29.98 in 9.0 mi SSE 8.1 mph - 0.01 in   Overcast
9:05 PM 73.0 °F - 71.1 °F 93% 29.98 in 8.0 mi South 6.9 mph - N/A   Overcast
10:16 PM 72.0 °F - 71.1 °F 97% 29.97 in 9.0 mi South 3.5 mph - 0.00 in   Overcast
10:25 PM 72.0 °F - 71.1 °F 97% 29.97 in 9.0 mi Calm Calm - 0.00 in   Mostly Cloudy
10:48 PM 71.6 °F - 71.6 °F 100% 29.97 in 6.0 mi Calm Calm - 0.00 in   Overcast
10:52 PM 72.0 °F - 71.1 °F 97% 29.96 in 6.0 mi Calm Calm - 0.00 in   Overcast
11:19 PM 71.1 °F - 70.0 °F 96% 29.97 in 6.0 mi Calm Calm - N/A   Scattered Clouds
11:52 PM 72.0 °F - 70.0 °F 93% 29.96 in 9.0 mi South 6.9 mph - N/A   Clear